This demonstration page uses our WeatherBlox Daily Observations layout. Learn more.

Left ArrowRight Arrow

38.83388, -104.82136

Hourly Observations for November 10, 2020

Temp ( °F °C ) Dew Point ( °F °C ) Humidity (%) Winds ( mph kmh ) Pressure ( in mb ) Visibility ( mi km ) Precip ( " mm )
12:08 am 00:08 Mostly Cloudy 25 -4 23 -5 93 93 S 9 15 29.51 999 10 16 0.00 0.00
12:58 am 00:58 Cloudy 25 -4 22 -5.3 91 91 NW 3 6 29.53 1000 10 16 0.00 0.00
1:43 am 01:43 Partly Cloudy with Freezing Fog 23 -5 21 -6 93 93 Calm 29.56 1001 3 5 0.00 0.00
1:58 am 01:58 Mostly Clear with Mist and Fog 24 -4.4 22 -5.6 91 91 Calm 29.54 1000 4 6 0.00 0.00
2:13 am 02:13 Mostly Clear with Freezing Fog 21 -6 19 -7 93 93 Calm 29.56 1001 1 2 0.00 0.00
2:28 am 02:28 Mostly Clear 23 -5 23 -5 100 100 S 3 6 29.56 1001 10 16 0.00 0.00
2:58 am 02:58 Hazy 24 -4.2 17 -8.4 73 73 Calm 29.55 1001 3 5 0.00 0.00
3:58 am 03:58 Clear 26 -3.6 13 -10.4 60 60 ENE 3 6 29.57 1001 10 16 0.00 0.00
4:13 am 04:13 Hazy 23 -5 12 -11 63 63 Calm 29.57 1001 7 11 0.00 0.00
4:28 am 04:28 Mostly Clear 23 -5 18 -8 80 80 NW 5 7 29.57 1002 10 16 0.00 0.00
4:58 am 04:58 Clear 25 -3.7 13 -10.7 59 59 SE 3 6 29.57 1001 10 16 0.00 0.00
5:58 am 05:58 Clear 27 -2.6 8 -13.3 44 44 S 10 17 29.57 1001 10 16 0.00 0.00
6:58 am 06:58 Sunny 27 -2.6 10 -12.4 47 47 SE 8 13 29.58 1002 10 16 0.00 0.00
7:58 am 07:58 Sunny 29 -1.5 8 -13.6 40 40 Calm 29.57 1001 10 16 0.01 0.25
8:58 am 08:58 Sunny 31 -0.7 13 -10.6 47 47 ENE 5 7 29.59 1002 10 16 0.01 0.25
9:58 am 09:58 Sunny 34 1.2 13 -10.7 41 41 E 3 6 29.56 1001 10 16 0.00 0.00
10:58 am 10:58 Sunny 38 3.2 9 -12.6 31 31 E 6 9 29.52 1000 10 16 0.00 0.00
11:58 am 11:58 Sunny 39 3.9 5 -14.8 24 24 NE 3 6 29.50 999 10 16 0.00 0.00
12:58 pm 12:58 Sunny 39 3.9 4 -15.5 23 23 Calm 29.47 998 10 16 0.00 0.00
1:58 pm 13:58 Sunny 39 3.7 6 -14.6 25 25 WNW 6 9 29.46 998 10 16 0.00 0.00
2:58 pm 14:58 Sunny 38 3.1 5 -14.9 26 26 WNW 7 11 29.49 999 10 16 0.00 0.00
3:58 pm 15:58 Mostly Cloudy 37 2.7 8 -13.6 29 29 WNW 6 9 29.48 998 10 16 0.00 0.00
4:58 pm 16:58 Mostly Cloudy 37 2.8 6 -14.2 28 28 W 5 7 29.51 999 10 16 0.00 0.00
5:58 pm 17:58 Mostly Cloudy 38 3.3 4 -15.3 24 24 W 5 7 29.53 1000 10 16 0.00 0.00
6:58 pm 18:58 Clear 35 1.8 5 -14.9 28 28 Calm 29.56 1001 10 16 0.00 0.00
7:58 pm 19:58 Clear 33 0.8 9 -12.9 35 35 NW 10 17 29.58 1002 10 16 0.00 0.00
8:58 pm 20:58 Clear 32 0 10 -12.3 39 39 NW 8 13 29.61 1003 10 16 0.00 0.00
9:58 pm 21:58 Clear 30 -1 9 -12.8 41 41 SSW 3 6 29.62 1003 10 16 0.00 0.00
10:58 pm 22:58 Clear 31 -0.7 9 -12.7 40 40 SSE 7 11 29.60 1003 10 16 0.00 0.00
11:58 pm 23:58 Clear 31 -0.8 9 -12.9 40 40 S 5 7 29.62 1003 10 16 0.00 0.00

Powered by AerisWeather